JAL68N RJOM-RJTT

Flight info

Callsign JAL68N
Flight time 1h 0m
Altitude 41000
Route SAKAR KRE V37 PADOC Y43 MENUR Y21 AKSEL
Aircraft A359/H-SDE2E3GHIJ3J4J5LM1ORWXY/LB1D1

Departure

Time 2026-04-23 10:27
Airport Matsuyama Airport (RJOM)

Arrival

Time 2026-04-23 11:27
Airport Tokyo Haneda International Airport (RJTT)
Time Latitude Longitude Altitude Speed Heading
2026-04-23 10:18 33.82845 132.70099 31 ft 0 kts 129°
2026-04-23 10:22 33.82836 132.70113 31 ft 7 kts 130°
2026-04-23 10:22 33.82776 132.70197 30 ft 18 kts 131°
2026-04-23 10:22 33.82686 132.70321 28 ft 21 kts 131°
2026-04-23 10:22 33.82585 132.70463 28 ft 24 kts 130°
2026-04-23 10:23 33.82473 132.70618 26 ft 26 kts 130°
2026-04-23 10:23 33.82352 132.70787 26 ft 27 kts 130°
2026-04-23 10:23 33.82296 132.70866 27 ft 0 kts 130°
2026-04-23 10:24 33.82279 132.70890 26 ft 12 kts 130°
2026-04-23 10:24 33.82208 132.70989 26 ft 13 kts 134°
2026-04-23 10:24 33.82130 132.71013 23 ft 12 kts 185°
2026-04-23 10:24 33.82045 132.70975 22 ft 15 kts 224°
2026-04-23 10:25 33.82035 132.70934 24 ft 0 kts 287°
2026-04-23 10:25 33.82056 132.70894 20 ft 9 kts 310°
2026-04-23 10:25 33.82058 132.70890 20 ft 0 kts 310°
2026-04-23 10:26 33.82174 132.70729 26 ft 68 kts 311°
2026-04-23 10:27 33.82673 132.70033 28 ft 149 kts 310°
2026-04-23 10:27 33.83428 132.68918 476 ft 184 kts 310°
2026-04-23 10:27 33.84146 132.67563 1328 ft 205 kts 289°
2026-04-23 10:27 33.83919 132.65897 2016 ft 213 kts 239°
2026-04-23 10:28 33.82735 132.64736 2269 ft 234 kts 198°
2026-04-23 10:28 33.81082 132.64690 2566 ft 248 kts 162°
2026-04-23 10:28 33.79443 132.65421 3152 ft 255 kts 156°
2026-04-23 10:28 33.77759 132.66173 3782 ft 261 kts 159°
2026-04-23 10:29 33.76004 132.66839 4373 ft 268 kts 161°
2026-04-23 10:29 33.74186 132.67446 4982 ft 274 kts 163°
2026-04-23 10:29 33.72346 132.68013 5593 ft 279 kts 165°
2026-04-23 10:29 33.70453 132.68574 6230 ft 283 kts 166°
2026-04-23 10:30 33.68537 132.69135 6833 ft 284 kts 166°
2026-04-23 10:30 33.66708 132.70061 7436 ft 289 kts 151°
2026-04-23 10:30 33.65053 132.71465 8063 ft 294 kts 146°
2026-04-23 10:30 33.63420 132.72979 8656 ft 299 kts 146°
2026-04-23 10:31 33.61768 132.74516 9246 ft 303 kts 147°
2026-04-23 10:31 33.60088 132.76073 9835 ft 307 kts 146°
2026-04-23 10:31 33.58523 132.77867 10268 ft 321 kts 132°
2026-04-23 10:31 33.57451 132.80303 10488 ft 342 kts 109°
2026-04-23 10:32 33.56996 132.83166 10731 ft 358 kts 98°
2026-04-23 10:32 33.56804 132.86196 10963 ft 371 kts 93°
2026-04-23 10:32 33.56745 132.89341 11202 ft 383 kts 91°
2026-04-23 10:32 33.56729 132.92574 11491 ft 392 kts 91°
2026-04-23 10:33 33.56705 132.95865 11883 ft 397 kts 91°
2026-04-23 10:33 33.56656 132.99174 12330 ft 399 kts 91°
2026-04-23 10:33 33.56572 133.02514 12691 ft 402 kts 92°
2026-04-23 10:33 33.56468 133.05892 13077 ft 408 kts 93°
2026-04-23 10:34 33.56355 133.09305 13450 ft 412 kts 93°
2026-04-23 10:34 33.56238 133.12740 13879 ft 414 kts 94°
2026-04-23 10:34 33.56115 133.16199 14259 ft 416 kts 93°
2026-04-23 10:34 33.55987 133.19676 14624 ft 419 kts 94°
2026-04-23 10:35 33.55859 133.23174 14961 ft 422 kts 94°
2026-04-23 10:35 33.55733 133.26715 15274 ft 428 kts 94°
2026-04-23 10:35 33.55606 133.30281 15698 ft 428 kts 94°
2026-04-23 10:35 33.55477 133.33853 16097 ft 430 kts 94°
2026-04-23 10:36 33.55344 133.37448 16449 ft 434 kts 94°
2026-04-23 10:36 33.55209 133.41070 16763 ft 437 kts 94°
2026-04-23 10:36 33.55071 133.44720 17139 ft 439 kts 95°
2026-04-23 10:36 33.54933 133.48390 17501 ft 442 kts 95°
2026-04-23 10:37 33.54794 133.52078 17842 ft 444 kts 95°
2026-04-23 10:37 33.54652 133.55786 18153 ft 447 kts 95°
2026-04-23 10:37 33.54509 133.59521 18456 ft 450 kts 95°
2026-04-23 10:37 33.54363 133.63275 18750 ft 452 kts 95°
2026-04-23 10:38 33.54216 133.67056 18973 ft 457 kts 95°
2026-04-23 10:38 33.54067 133.70868 19267 ft 459 kts 95°
2026-04-23 10:38 33.53909 133.74696 19600 ft 461 kts 95°
2026-04-23 10:38 33.53741 133.78536 19905 ft 462 kts 95°
2026-04-23 10:39 33.53570 133.82392 20223 ft 465 kts 95°
2026-04-23 10:39 33.53398 133.86272 20502 ft 467 kts 95°
2026-04-23 10:39 33.53229 133.90167 20817 ft 469 kts 95°
2026-04-23 10:39 33.53054 133.94077 21139 ft 471 kts 95°
2026-04-23 10:40 33.52876 133.98005 21426 ft 473 kts 95°
2026-04-23 10:40 33.52694 134.01950 21711 ft 475 kts 95°
2026-04-23 10:40 33.52513 134.05914 21996 ft 477 kts 95°
2026-04-23 10:40 33.52333 134.09899 22285 ft 479 kts 95°
2026-04-23 10:41 33.52151 134.13893 22587 ft 481 kts 95°
2026-04-23 10:41 33.51967 134.17847 22842 ft 483 kts 95°
2026-04-23 10:41 33.51777 134.21878 23113 ft 485 kts 95°
2026-04-23 10:41 33.51585 134.25927 23290 ft 489 kts 95°
2026-04-23 10:42 33.51392 134.30007 23486 ft 491 kts 95°
2026-04-23 10:42 33.51198 134.34094 23738 ft 492 kts 95°
2026-04-23 10:42 33.51002 134.38191 23965 ft 494 kts 95°
2026-04-23 10:42 33.50813 134.42307 24225 ft 494 kts 95°
2026-04-23 10:43 33.50634 134.46427 24437 ft 496 kts 95°
2026-04-23 10:43 33.50458 134.50568 24661 ft 499 kts 95°
2026-04-23 10:43 33.50280 134.54721 24872 ft 500 kts 95°
2026-04-23 10:43 33.50100 134.58886 25085 ft 502 kts 95°
2026-04-23 10:44 33.49919 134.63077 25273 ft 505 kts 95°
2026-04-23 10:44 33.49738 134.67292 25424 ft 508 kts 95°
2026-04-23 10:44 33.49555 134.71524 25650 ft 510 kts 95°
2026-04-23 10:44 33.49368 134.75776 25893 ft 511 kts 95°
2026-04-23 10:45 33.49180 134.80037 26121 ft 513 kts 95°
2026-04-23 10:45 33.48989 134.84317 26350 ft 515 kts 95°
2026-04-23 10:45 33.48796 134.88605 26650 ft 516 kts 95°
2026-04-23 10:45 33.48602 134.92892 26951 ft 516 kts 95°
2026-04-23 10:46 33.48406 134.97200 27176 ft 519 kts 95°
2026-04-23 10:46 33.48208 135.01525 27360 ft 522 kts 95°
2026-04-23 10:46 33.48012 135.05890 27453 ft 527 kts 95°
2026-04-23 10:46 33.47816 135.10288 27712 ft 529 kts 95°
2026-04-23 10:47 33.47618 135.14695 27917 ft 532 kts 96°
2026-04-23 10:47 33.47417 135.19133 28155 ft 535 kts 96°
2026-04-23 10:47 33.47214 135.23585 28417 ft 536 kts 96°
2026-04-23 10:47 33.47008 135.28054 28681 ft 539 kts 96°
2026-04-23 10:48 33.46800 135.32542 28941 ft 541 kts 96°
2026-04-23 10:48 33.46597 135.37050 29204 ft 543 kts 96°
2026-04-23 10:48 33.46405 135.41579 29470 ft 546 kts 96°
2026-04-23 10:48 33.46217 135.46129 29724 ft 549 kts 96°
2026-04-23 10:49 33.46027 135.50701 29922 ft 551 kts 96°
2026-04-23 10:49 33.45835 135.55294 30115 ft 554 kts 96°
2026-04-23 10:49 33.45637 135.59917 30344 ft 557 kts 96°
2026-04-23 10:49 33.45437 135.64552 30587 ft 559 kts 96°
2026-04-23 10:50 33.45232 135.69215 30819 ft 561 kts 96°
2026-04-23 10:50 33.45025 135.73888 31049 ft 564 kts 96°
2026-04-23 10:50 33.45039 135.78533 31264 ft 569 kts 88°
2026-04-23 10:50 33.45596 135.83248 31461 ft 574 kts 80°
2026-04-23 10:51 33.46389 135.87945 31684 ft 576 kts 78°
2026-04-23 10:51 33.47273 135.92633 31899 ft 579 kts 77°
2026-04-23 10:51 33.48208 135.97329 32074 ft 581 kts 77°
2026-04-23 10:51 33.49163 136.02047 32209 ft 585 kts 77°
2026-04-23 10:52 33.50122 136.06798 32413 ft 587 kts 77°
2026-04-23 10:52 33.51072 136.11561 32610 ft 589 kts 77°
2026-04-23 10:52 33.52016 136.16347 32812 ft 591 kts 77°
2026-04-23 10:52 33.52953 136.21147 32997 ft 593 kts 77°
2026-04-23 10:53 33.53886 136.25961 33271 ft 593 kts 77°
2026-04-23 10:53 33.54815 136.30777 33552 ft 593 kts 77°
2026-04-23 10:53 33.55741 136.35589 33805 ft 594 kts 77°
2026-04-23 10:53 33.56666 136.40403 34174 ft 590 kts 78°
2026-04-23 10:54 33.57585 136.45189 34561 ft 587 kts 78°
2026-04-23 10:54 33.58498 136.49959 34827 ft 587 kts 78°
2026-04-23 10:54 33.59412 136.54740 35087 ft 588 kts 78°
2026-04-23 10:54 33.60321 136.59509 35401 ft 586 kts 78°
2026-04-23 10:55 33.61228 136.64271 35759 ft 584 kts 78°
2026-04-23 10:55 33.62130 136.69024 36037 ft 584 kts 78°
2026-04-23 10:55 33.63032 136.73782 36304 ft 585 kts 78°
2026-04-23 10:55 33.63930 136.78543 36408 ft 588 kts 78°
2026-04-23 10:56 33.64831 136.83334 36636 ft 589 kts 78°
2026-04-23 10:56 33.65732 136.88119 36941 ft 588 kts 78°
2026-04-23 10:56 33.66632 136.92912 37233 ft 588 kts 78°
2026-04-23 10:56 33.67530 136.97702 37510 ft 587 kts 78°
2026-04-23 10:57 33.68423 137.02474 37662 ft 583 kts 78°
2026-04-23 10:57 33.69304 137.07199 37666 ft 577 kts 78°
2026-04-23 10:57 33.71043 137.16568 37670 ft 574 kts 78°
2026-04-23 10:58 33.72773 137.25919 37671 ft 573 kts 78°
2026-04-23 10:58 33.74499 137.35275 37674 ft 573 kts 78°
2026-04-23 10:59 33.76207 137.44579 37679 ft 574 kts 78°
2026-04-23 10:59 33.77919 137.53953 37679 ft 575 kts 78°
2026-04-23 11:00 33.79629 137.63366 37683 ft 578 kts 78°
2026-04-23 11:00 33.81335 137.72819 37694 ft 579 kts 79°
2026-04-23 11:01 33.83039 137.82279 37698 ft 579 kts 79°
2026-04-23 11:01 33.84740 137.91757 37696 ft 580 kts 79°
2026-04-23 11:02 33.86433 138.01248 37707 ft 580 kts 79°
2026-04-23 11:02 33.88117 138.10731 37715 ft 580 kts 79°
2026-04-23 11:03 33.89794 138.20223 37716 ft 580 kts 79°
2026-04-23 11:03 33.92059 138.29514 37732 ft 580 kts 64°
2026-04-23 11:04 33.95645 138.38216 37734 ft 580 kts 60°
2026-04-23 11:04 33.99463 138.46760 37702 ft 574 kts 60°
2026-04-23 11:05 34.01362 138.50968 37087 ft 571 kts 60°
2026-04-23 11:05 34.03259 138.55187 36287 ft 574 kts 60°
2026-04-23 11:05 34.05153 138.59424 35598 ft 574 kts 60°
2026-04-23 11:05 34.07043 138.63678 34873 ft 575 kts 60°
2026-04-23 11:06 34.10176 138.70764 33545 ft 579 kts 61°
2026-04-23 11:06 34.12068 138.75061 32653 ft 580 kts 61°
2026-04-23 11:06 34.13964 138.79374 31787 ft 581 kts 61°
2026-04-23 11:07 34.15859 138.83690 30912 ft 582 kts 61°
2026-04-23 11:07 34.17756 138.88015 30013 ft 584 kts 61°
2026-04-23 11:07 34.19658 138.92353 29183 ft 582 kts 61°
2026-04-23 11:07 34.21540 138.96654 28541 ft 575 kts 61°
2026-04-23 11:08 34.23394 139.00901 27924 ft 569 kts 61°
2026-04-23 11:08 34.25235 139.05115 27295 ft 563 kts 61°
2026-04-23 11:08 34.27050 139.09273 26690 ft 558 kts 61°
2026-04-23 11:08 34.28743 139.13486 26022 ft 554 kts 65°
2026-04-23 11:09 34.30288 139.17735 25413 ft 549 kts 66°
2026-04-23 11:09 34.31772 139.21960 24801 ft 544 kts 67°
2026-04-23 11:09 34.33224 139.26170 24202 ft 540 kts 67°
2026-04-23 11:09 34.34650 139.30347 23582 ft 535 kts 67°
2026-04-23 11:10 34.36061 139.34490 22906 ft 530 kts 67°
2026-04-23 11:10 34.37461 139.38589 22282 ft 524 kts 67°
2026-04-23 11:10 34.38845 139.42636 21674 ft 517 kts 67°
2026-04-23 11:10 34.40214 139.46632 21062 ft 511 kts 67°
2026-04-23 11:11 34.41568 139.50586 20472 ft 505 kts 67°
2026-04-23 11:11 34.42904 139.54492 19868 ft 500 kts 67°
2026-04-23 11:11 34.44230 139.58373 19254 ft 496 kts 66°
2026-04-23 11:11 34.45543 139.62220 18651 ft 492 kts 66°
2026-04-23 11:12 34.46846 139.66043 18028 ft 488 kts 66°
2026-04-23 11:12 34.48371 139.69681 17360 ft 481 kts 54°
2026-04-23 11:12 34.50532 139.72682 16755 ft 468 kts 36°
2026-04-23 11:12 34.53142 139.74954 16178 ft 458 kts 28°
2026-04-23 11:13 34.55835 139.76980 15580 ft 454 kts 26°
2026-04-23 11:13 34.58526 139.78956 14986 ft 451 kts 26°
2026-04-23 11:13 34.61202 139.80918 14398 ft 448 kts 27°
2026-04-23 11:13 34.63858 139.82868 13819 ft 445 kts 27°
2026-04-23 11:14 34.66513 139.84754 13176 ft 439 kts 23°
2026-04-23 11:14 34.69342 139.85935 12564 ft 423 kts
2026-04-23 11:14 34.72216 139.86447 11984 ft 414 kts
2026-04-23 11:14 34.75063 139.86830 11434 ft 409 kts
2026-04-23 11:15 34.77879 139.87202 10854 ft 405 kts
2026-04-23 11:15 34.80649 139.87579 10563 ft 392 kts
2026-04-23 11:15 34.83298 139.87949 10445 ft 374 kts
2026-04-23 11:15 34.85823 139.88303 10323 ft 358 kts
2026-04-23 11:16 34.88248 139.88645 10184 ft 343 kts
2026-04-23 11:16 34.90565 139.88972 10046 ft 329 kts
2026-04-23 11:16 34.92802 139.89287 9893 ft 317 kts
2026-04-23 11:16 34.94978 139.89356 9612 ft 312 kts 352°
2026-04-23 11:17 34.97096 139.88841 9261 ft 310 kts 345°
2026-04-23 11:17 34.99179 139.88178 8957 ft 309 kts 344°
2026-04-23 11:17 35.01251 139.87501 8660 ft 307 kts 344°
2026-04-23 11:17 35.03311 139.86835 8366 ft 305 kts 345°
2026-04-23 11:18 35.05361 139.86178 8066 ft 304 kts 345°
2026-04-23 11:18 35.07401 139.85527 7775 ft 302 kts 346°
2026-04-23 11:18 35.09400 139.84893 7489 ft 300 kts 346°
2026-04-23 11:18 35.11419 139.84253 7198 ft 299 kts 346°
2026-04-23 11:19 35.13419 139.83619 6918 ft 295 kts 346°
2026-04-23 11:19 35.15394 139.82992 6630 ft 291 kts 347°
2026-04-23 11:19 35.17347 139.82372 6352 ft 289 kts 347°
2026-04-23 11:19 35.19292 139.81755 6152 ft 289 kts 347°
2026-04-23 11:20 35.21230 139.81144 5973 ft 287 kts 348°
2026-04-23 11:20 35.23155 139.80535 5618 ft 285 kts 348°
2026-04-23 11:20 35.25065 139.79925 5202 ft 282 kts 348°
2026-04-23 11:20 35.26952 139.79324 4838 ft 278 kts 348°
2026-04-23 11:21 35.28805 139.78732 4465 ft 273 kts 348°
2026-04-23 11:21 35.30627 139.78297 4226 ft 261 kts 359°
2026-04-23 11:21 35.32369 139.78667 3926 ft 253 kts 24°
2026-04-23 11:21 35.33873 139.79768 3476 ft 252 kts 36°
2026-04-23 11:22 35.35272 139.81045 3087 ft 249 kts 37°
2026-04-23 11:22 35.36617 139.82297 2938 ft 236 kts 37°
2026-04-23 11:22 35.37896 139.83476 2804 ft 224 kts 37°
2026-04-23 11:22 35.39089 139.84563 2663 ft 203 kts 37°
2026-04-23 11:23 35.40171 139.85548 2537 ft 184 kts 37°
2026-04-23 11:23 35.41165 139.86395 2457 ft 165 kts 31°
2026-04-23 11:23 35.42192 139.86831 2368 ft 151 kts 12°
2026-04-23 11:23 35.43211 139.86891 2261 ft 141 kts
2026-04-23 11:24 35.44153 139.86793 2162 ft 132 kts 357°
2026-04-23 11:24 35.45034 139.86560 2020 ft 128 kts 350°
2026-04-23 11:24 35.45870 139.86155 1881 ft 131 kts 338°
2026-04-23 11:24 35.46661 139.85601 1757 ft 131 kts 336°
2026-04-23 11:25 35.47456 139.85058 1597 ft 130 kts 336°
2026-04-23 11:25 35.48250 139.84532 1421 ft 129 kts 335°
2026-04-23 11:25 35.49033 139.83999 1252 ft 129 kts 335°
2026-04-23 11:25 35.49804 139.83452 1066 ft 127 kts 334°
2026-04-23 11:26 35.50572 139.82912 883 ft 127 kts 334°
2026-04-23 11:26 35.51340 139.82381 683 ft 126 kts 330°
2026-04-23 11:26 35.52085 139.81820 513 ft 125 kts 330°
2026-04-23 11:26 35.52840 139.81296 351 ft 125 kts 331°
2026-04-23 11:27 35.53589 139.80765 167 ft 123 kts 333°
2026-04-23 11:27 35.54321 139.80253 55 ft 123 kts 333°
2026-04-23 11:27 35.55020 139.79769 30 ft 95 kts 329°
2026-04-23 11:27 35.55428 139.79479 30 ft 41 kts 330°
2026-04-23 11:28 35.55542 139.79399 30 ft 10 kts 330°
2026-04-23 11:28 35.55610 139.79350 30 ft 13 kts 329°
2026-04-23 11:28 35.55679 139.79282 30 ft 13 kts 317°
2026-04-23 11:28 35.55742 139.79197 30 ft 14 kts 308°
2026-04-23 11:29 35.55793 139.79101 29 ft 15 kts 301°
2026-04-23 11:29 35.55827 139.79030 29 ft 15 kts 300°
2026-04-23 11:29 35.55883 139.78916 28 ft 15 kts 309°
2026-04-23 11:29 35.55966 139.78843 29 ft 15 kts 329°
2026-04-23 11:30 35.56053 139.78780 29 ft 15 kts 329°
2026-04-23 11:30 35.56140 139.78718 29 ft 14 kts 330°
2026-04-23 11:30 35.56226 139.78659 29 ft 14 kts 330°
2026-04-23 11:30 35.56309 139.78599 29 ft 13 kts 329°
2026-04-23 11:31 35.56389 139.78542 29 ft 13 kts 330°
2026-04-23 11:31 35.56460 139.78478 29 ft 11 kts 297°
2026-04-23 11:31 35.56447 139.78388 29 ft 11 kts 242°
2026-04-23 11:31 35.56409 139.78304 29 ft 12 kts 240°
2026-04-23 11:32 35.56353 139.78185 29 ft 17 kts 239°
2026-04-23 11:32 35.56291 139.78055 29 ft 18 kts 239°
2026-04-23 11:32 35.56227 139.77921 29 ft 18 kts 240°
2026-04-23 11:32 35.56162 139.77782 30 ft 19 kts 239°
2026-04-23 11:33 35.56094 139.77640 30 ft 20 kts 240°
2026-04-23 11:33 35.56023 139.77491 29 ft 21 kts 240°
2026-04-23 11:33 35.55935 139.77357 29 ft 20 kts 194°
2026-04-23 11:33 35.55813 139.77420 29 ft 20 kts 150°
2026-04-23 11:34 35.55650 139.77534 30 ft 35 kts 150°
2026-04-23 11:34 35.55414 139.77698 30 ft 40 kts 150°
2026-04-23 11:34 35.55173 139.77874 30 ft 41 kts 150°
2026-04-23 11:34 35.54929 139.78049 31 ft 42 kts 149°
2026-04-23 11:35 35.54681 139.78222 31 ft 33 kts 150°
2026-04-23 11:35 35.54596 139.78340 31 ft 16 kts 104°
2026-04-23 11:35 35.54591 139.78440 31 ft 0 kts 92°